Location: Corminboeuf
(46.8124°N, 7.1049°E)
Time: 15:39:16
(UTC+00:00)

Daily predictions for brighter satellites

Satellite Brightness Start Highest point End
(mag) Time Altitude Azimuth Time Altitude Azimuth Time Altitude Azimuth
Cosmos 1238 Rocket 4.3 17:27:45 10° S 17:34:13 86° W 17:40:54 10° N
Cosmos 1633 3.5 17:33:33 10° SSW 17:37:05 52° WNW 17:40:38 10° N
Sich 1 3.0 17:33:28 10° S 17:37:45 89° WNW 17:42:02 10° N
STARLINK-24 3.9 17:35:10 10° WSW 17:39:09 63° NNW 17:43:09 10° ENE
Cosmos 1939 Rocket 3.3 17:36:08 10° SE 17:40:02 42° ENE 17:43:58 10° N
STARLINK-1029 2.9 17:36:54 10° WSW 17:40:04 84° NNW 17:43:15 10° ENE
STARLINK-1037 4.1 17:37:05 10° SW 17:41:03 46° SE 17:45:01 10° ENE
USA 234 4.2 17:36:06 10° ENE 17:42:00 37° N 17:47:54 10° WNW
STARLINK-29 3.1 17:41:10 10° WNW 17:44:34 76° NNE 17:47:57 10° ESE
Cosmos 1656 Rocket 4.5 17:40:19 10° SSE 17:44:58 29° ESE 17:49:43 10° NE
CZ-4 R/B 1.4 17:40:53 10° SSE 17:45:04 73° ENE 17:49:13 10° N
STARLINK-1059 4.0 17:42:05 10° SW 17:46:05 50° SE 17:50:05 10° ENE
NOSS 2-3 (D) 4.2 17:42:09 10° S 17:46:09 40° ESE 17:50:46 10° NE
SL-27 R/B 2.5 17:42:57 10° NNW 17:46:17 78° WSW 17:49:36 10° SSE
STARLINK-1016 3.4 17:44:00 10° WSW 17:47:15 60° NNW 17:50:32 10° ENE
STARLINK-1008 3.4 17:44:23 10° WSW 17:47:40 60° NNW 17:50:59 10° ENE
USA 229 DEB 3.7 17:41:30 10° SW 17:48:03 88° NW 17:55:00 10° NE
USA 229 3.7 17:41:36 10° SW 17:48:09 88° NW 17:55:06 10° NE
STARLINK-81 4.0 17:44:50 10° WSW 17:48:49 60° NNW 17:52:48 10° ENE
Cosmos 1470 Rocket 4.0 17:45:35 10° SSE 17:49:37 39° E 17:53:44 10° NNE
STARLINK-54 4.0 17:46:44 10° WSW 17:50:42 56° NNW 17:54:40 10° ENE
STARLINK-1025 3.5 17:47:44 10° WSW 17:50:59 57° NNW 17:54:16 10° NE
STARLINK-1057 3.9 17:47:02 10° SW 17:51:04 54° SE 17:55:06 10° ENE
STARLINK-75 4.2 17:48:47 10° W 17:51:57 36° NNW 17:55:09 10° NE
STARLINK-77 4.0 17:48:10 10° WSW 17:52:09 57° NNW 17:56:07 10° ENE
STARLINK-1017 3.5 17:49:24 10° WSW 17:52:40 56° NNW 17:55:56 10° NE
STARLINK-22 4.1 17:49:43 10° W 17:52:55 39° NNW 17:56:07 10° NE
STARLINK-25 4.0 17:49:50 10° WSW 17:53:48 56° NNW 17:57:47 10° ENE
Centaur D AC-28 4.5 17:42:45 10° WSW 17:53:53 21° SSW 17:58:16 10° SSE
STARLINK-41 4.2 17:51:14 10° W 17:54:23 38° NNW 17:57:34 10° NE
NOSS 3-1 (A) 3.3 17:49:48 10° SSW 17:55:15 70° SE 18:01:37 10° NE
STARLINK-71 4.1 17:51:46 10° W 17:55:43 52° NNW 17:59:39 10° ENE
Cosmos 1862 Rocket 3.5 17:51:26 10° N 17:55:45 63° E 18:00:03 10° SSE
STARLINK-1034 3.8 17:51:57 10° SW 17:56:00 58° SE 17:59:53 11° ENE
Cosmos 2242 Rocket 4.1 17:51:47 10° N 17:56:03 39° ENE 18:00:19 10° SE
COSMO-SKYMED 1 2.7 17:51:54 10° NNE 17:56:16 81° WNW 18:00:35 10° SSW
STARLINK-79 4.1 17:53:09 10° W 17:57:07 54° NNW 18:01:05 10° ENE
STARLINK-52 3.0 17:54:03 10° WNW 17:57:26 85° NNE 18:00:48 10° ESE
STARLINK-1048 3.6 17:54:30 10° WSW 17:57:44 52° NNW 18:00:54 11° NE
Okean-O 3.8 17:53:33 10° S 17:57:50 48° W 18:02:09 10° NNW
Cosmos 1707 Rocket 4.4 17:53:43 10° NNW 17:58:05 57° W 18:02:27 10° S
STARLINK-78 4.1 17:54:51 10° W 17:58:48 53° NNW 18:02:42 10° ENE
STARLINK-1049 3.6 17:56:12 10° W 17:59:27 51° NNW 18:02:33 11° NE
STARLINK-60 4.3 17:56:43 10° WNW 17:59:49 39° SW 18:02:55 10° SSE
STARLINK-57 4.2 17:56:38 10° W 18:00:34 51° NNW 18:04:24 11° ENE
STARLINK-1068 3.7 17:56:53 10° SW 18:00:58 63° SE 18:04:40 13° ENE
CENTAUR R/B 4.4 17:55:19 10° NW 18:01:02 24° NNE 18:07:21 10° ENE
STARLINK-1051 3.7 17:57:57 10° W 18:01:12 50° NNW 18:04:14 11° NE
STARLINK-1028 3.7 17:58:21 10° W 18:01:35 50° NNW 18:04:37 12° NE
FALCON 9 DEB 3.3 17:58:11 10° WNW 18:01:38 71° SSW 18:05:04 10° SE
STARLINK-64 4.3 17:58:16 10° W 18:01:40 38° NNW 18:04:55 11° NE
STARLINK-49 4.1 17:58:10 10° W 18:02:06 52° NNW 18:05:52 11° ENE
Cosmos 1812 3.1 17:59:18 10° NNW 18:03:10 69° W 18:07:00 10° S
STARLINK-1021 3.7 18:00:08 10° W 18:03:22 49° NNW 18:06:19 12° NE
Cosmos 2369 Rocket 2.2 17:57:47 10° SSW 18:03:27 82° ESE 18:09:11 10° NNE
STARLINK-27 4.2 17:59:50 10° W 18:03:45 51° NNW 18:07:27 11° NE
Ariane Rocket 3.5 18:00:11 10° SE 18:04:50 38° ENE 18:09:33 10° N
Cosmos 921 Rocket 3.4 18:00:25 10° SSW 18:04:55 72° WNW 18:09:27 10° NNE
STARLINK-1019 3.8 18:01:55 10° W 18:05:09 48° NNW 18:08:02 12° NE
STARLINK-74 4.2 18:01:30 10° W 18:05:26 50° NNW 18:09:03 12° NE
STARLINK-1012 3.8 18:03:43 10° W 18:06:57 47° NNW 18:09:46 13° NE
STARLINK-39 4.2 18:03:10 10° W 18:07:05 49° NNW 18:10:38 12° NE
Lacrosse 5 3.6 18:04:49 10° SSE 18:07:20 14° ESE 18:08:21 13° ESE
STARLINK-31 4.2 18:04:51 10° W 18:08:46 48° NNW 18:12:14 13° NE
Okean 1-7 3.9 18:05:21 10° NNE 18:09:05 28° ENE 18:12:50 10° SE
STARLINK-1026 3.9 18:07:19 10° W 18:10:32 45° NNW 18:13:12 14° NE
STARLINK-69 4.3 18:06:44 10° W 18:10:37 46° NNW 18:14:00 13° NE
STARLINK-1060 3.6 18:06:47 10° SW 18:10:54 73° SSE 18:14:13 15° ENE
STARLINK-1014 3.7 18:07:30 10° WSW 18:10:55 53° NNW 18:13:43 14° NE
SJ-6B 4.2 18:11:06 17° E 18:11:51 18° ENE 18:14:26 10° NNE
STARLINK-21 4.3 18:08:12 10° W 18:12:06 47° NNW 18:15:26 14° NE
STARLINK-1013 3.9 18:09:09 10° W 18:12:22 44° NNW 18:14:58 14° NE
ATLAS 3B R/B 4.4 18:08:12 10° NW 18:12:40 18° N 18:17:11 10° NE
Cosmos 1703 Rocket 4.1 18:08:35 10° N 18:12:43 36° ENE 18:16:50 10° SE
CZ-2D R/B 3.3 18:09:58 10° SSE 18:13:52 85° WSW 18:17:48 10° NNW
STARLINK-45 4.4 18:10:07 10° W 18:13:59 44° NNW 18:17:13 14° NE
STARLINK-1009 3.9 18:10:57 10° W 18:14:10 43° NNW 18:16:42 15° NE
STARLINK-70 4.4 18:11:41 10° W 18:15:34 44° NNW 18:18:45 14° NE
STARLINK-1030 3.6 18:11:47 10° SW 18:15:55 78° SSE 18:19:01 17° ENE
STARLINK-1015 4.0 18:12:48 10° W 18:16:01 42° NNW 18:18:28 16° NE
Cosmos 1833 4.2 18:10:26 10° NNW 18:16:14 74° ENE 18:21:57 10° SSE
STARLINK-76 4.4 18:13:13 10° W 18:17:05 45° NNW 18:20:13 15° NE
STARLINK-23 4.4 18:14:53 10° W 18:18:44 44° NNW 18:21:48 15° NE
NOSS 2-3 (C) 3.6 18:15:51 10° SW 18:20:11 81° SE 18:25:20 10° NE
STARLINK-32 4.4 18:16:33 10° W 18:20:25 44° NNW 18:23:24 16° NE
STARLINK-1020 3.6 18:16:43 10° SW 18:20:51 84° SSE 18:23:47 19° ENE
SJ 16-02 2.1 18:17:34 10° N 18:21:33 32° ENE 18:23:52 20° ESE
STARLINK-40 4.4 18:18:13 10° W 18:22:05 43° NNW 18:24:58 16° NE
FREGAT/IRIS 4.0 18:23:34 19° NE 18:23:34 19° NE 18:24:54 10° NNE
STARLINK-1047 3.6 18:19:07 10° WSW 18:23:18 88° SSE 18:26:11 20° ENE
STARLINK-44 4.4 18:19:54 10° W 18:23:45 43° NNW 18:26:35 17° NE
H-2A R/B 2.6 18:19:04 10° SE 18:24:02 40° ENE 18:29:06 10° N
DMSP B5D1-3 4.4 18:18:59 10° NNE 18:24:10 76° ESE 18:29:19 10° S
ARGOS 3.7 18:20:32 10° SE 18:25:26 36° ENE 18:30:21 10° N
STARLINK-37 4.5 18:21:41 10° W 18:25:32 41° NNW 18:28:16 17° NE
Cosmos 1937 Rocket 4.2 18:20:58 10° N 18:25:41 32° ENE 18:28:21 21° ESE
STARLINK-1052 3.6 18:21:43 10° WSW 18:25:51 89° SE 18:28:35 21° ENE
STARLINK-36 4.5 18:23:13 10° W 18:27:04 42° NNW 18:29:45 18° NE
CSL-04 Rocket 4.1 18:23:06 10° S 18:28:37 67° WSW 18:34:05 10° NNW
Cosmos 2263 4.3 18:25:12 10° SSW 18:31:00 86° WNW 18:36:48 10° NNE
Cosmos 1346 Rocket 2.7 18:27:40 10° S 18:31:40 88° E 18:35:39 10° NNE
BREEZE-M DEB (TANK) 3.4 18:29:37 10° WNW 18:32:23 70° SSW 18:37:09 17° ESE
STARLINK-1023 4.2 18:32:13 10° W 18:35:10 33° NNW 18:36:38 22° NE
YAOGAN 1 3.9 18:31:04 10° S 18:35:11 43° W 18:39:20 10° NNW
STARLINK-43 3.9 18:31:48 10° NW 18:35:23 44° NNE 18:36:38 31° ENE
STARLINK-1033 3.6 18:31:39 10° WSW 18:35:47 81° NNW 18:38:07 25° ENE
USA 186 4.0 18:38:08 10° NNE 18:38:08 10° NNE 18:38:10 10° NNE
STARLINK-1041 4.4 18:33:57 10° SSW 18:37:38 32° SE 18:38:25 29° ESE
Nadezhda 4 Rocket 4.3 18:32:28 10° N 18:38:28 44° ENE 18:44:27 10° SE
Cosmos 1464 Rocket 4.0 18:33:33 10° S 18:39:46 59° E 18:46:02 10° NNE
Cosmos 44 Rocket 3.6 18:36:34 10° NNW 18:41:08 45° NE 18:42:58 31° E
OE (NEXTSAT) 4.3 18:38:20 10° W 18:41:50 75° S 18:42:51 43° ESE
STARLINK-1038 4.3 18:38:49 10° SSW 18:42:35 35° SE 18:43:12 33° ESE
STARLINK-1035 3.8 18:38:45 10° WSW 18:42:59 70° NNW 18:45:13 27° NE
STARLINK-1024 3.7 18:41:39 10° WSW 18:45:47 72° NNW 18:47:43 30° NE
Cosmos 2297 Rocket 3.5 18:42:50 10° N 18:47:06 21° NE 18:47:51 21° NE
STARLINK-1046 4.2 18:43:40 10° SSW 18:47:30 37° SE 18:47:57 36° ESE
Cosmos 1933 Rocket 3.8 18:43:08 10° SSW 18:47:32 72° W 18:51:56 10° N
NOSS 3-1 (C) 4.5 18:42:39 10° WSW 18:48:02 43° NW 18:54:20 10° NE
Meteor 1-20 Rocket 4.1 18:46:39 10° S 18:52:07 85° ESE 18:57:43 10° NNE
STARLINK-1039 4.0 18:48:34 10° SSW 18:52:27 41° SE 18:52:44 40° SE
STARLINK-1027 4.1 18:49:28 10° WSW 18:53:40 60° NNW 18:55:28 32° NE
STARLINK-1007 4.4 18:50:50 10° WNW 18:53:45 30° NNW 18:54:28 27° NNE
STARLINK-55 4.5 18:51:44 10° WNW 18:54:34 26° N 18:55:01 25° NNE
Meteor 1-18 Rocket 4.2 18:48:55 10° N 18:54:52 79° ENE 19:00:41 10° SSE
STARLINK-1032 3.9 18:51:38 10° WSW 18:55:45 64° NNW 18:57:16 36° NE
STARLINK-28 4.5 18:53:24 10° WNW 18:56:15 26° N 18:56:36 26° NNE
Cosmos 405 2.9 18:53:03 10° N 18:56:37 89° W 18:58:22 28° S
STARLINK-80 4.2 18:53:02 10° NW 18:56:39 38° NNE 18:57:10 36° NE
STARLINK-1045 3.9 18:53:29 10° SSW 18:57:25 44° SE 18:57:32 44° SE
ADEOS Rocket 3.8 18:49:42 10° N 18:57:28 74° WNW 19:05:05 10° SSW
Cosmos 2221 Rocket 4.3 18:53:17 10° N 18:56:58 35° ENE 18:56:58 35° ENE
COSMOS 2487 2.7 18:54:15 10° NNW 18:57:40 64° WSW 18:59:29 25° S
Cosmos 1943 Rocket 3.8 18:52:40 10° WSW 18:57:42 34° NW 19:02:45 10° NNE
MOS 1 4.2 18:53:02 10° SSE 18:58:42 79° ENE 19:04:23 10° NNW
CZ-2C R/B 3.2 18:53:42 10° SSE 18:59:28 66° ENE 19:05:06 10° N
Cosmos 2034 Rocket 3.9 18:54:16 10° S 19:00:18 60° E 19:06:21 10° NNE
STARLINK-1011 3.9 18:56:37 10° WSW 19:00:43 61° NNW 19:02:03 39° NE
Cosmos 468 Rocket 3.9 18:56:37 10° S 19:01:51 66° ESE 19:07:09 10° NNE
STARLINK-1050 3.8 18:58:27 10° SW 19:02:26 49° SE 19:02:26 49° SE
Okean 1 3.2 18:58:25 10° N 19:02:28 87° E 19:04:38 26° S
Timation 2 Rocket 4.1 18:55:53 10° NNW 19:02:48 74° ENE 19:07:09 24° SE
Lacrosse 5 rocket 3.0 18:59:12 10° NW 19:03:02 26° NNE 19:04:00 24° NNE
STARLINK-1036 4.0 19:01:39 10° WSW 19:05:44 57° NNW 19:06:51 41° NNE
Cosmos 2227 Rocket 3.4 19:01:15 10° N 19:05:51 25° NE 19:05:51 25° NE
BREEZE-M DEB (TANK) 2.9 19:03:54 10° WNW 19:06:06 63° NNW 19:06:06 63° NNW
SPOT 3 Rocket 3.6 19:05:25 40° ESE 19:07:00 56° ENE 19:12:06 10° N
STARLINK-1055 3.8 19:03:22 10° SW 19:07:11 52° SSE 19:07:11 52° SSE
Meteor 1-14 Rocket 4.0 19:05:09 10° S 19:10:40 80° E 19:16:15 10° NNE
STARLINK-1044 4.1 19:06:39 10° W 19:10:43 55° NNW 19:11:37 44° NNE
Meteor 2-11 Rocket 4.4 19:05:21 10° S 19:11:27 87° W 19:17:34 10° N
STARLINK-1031 4.2 19:08:01 10° W 19:11:58 50° NNW 19:12:46 42° NNE
STARLINK-1022 3.8 19:08:19 10° SW 19:12:00 55° S 19:12:00 55° S
Cosmos 1898 Rocket 3.5 19:08:52 10° NNW 19:14:04 80° WSW 19:17:01 26° SSE
Gbstr 26 Del rocket 3.0 19:09:58 10° SW 19:14:05 70° SSE 19:14:28 66° ESE
STARLINK-1042 3.9 19:13:14 10° SW 19:16:46 55° S 19:16:46 55° S
Resurs 1-3 4.4 19:19:42 37° NNE 19:19:42 37° NNE 19:22:40 10° N
STARLINK-1037 4.2 19:16:36 10° W 19:20:39 50° NNW 19:21:07 47° N
STARLINK-1056 4.0 19:18:12 10° SW 19:21:33 54° SSW 19:21:33 54° SSW
Cosmos 1092 Rocket 4.0 19:16:54 10° N 19:23:11 60° ENE 19:24:42 47° SE
USA 234 3.9 19:21:54 32° NE 19:24:09 42° NNE 19:30:13 10° NW
STARLINK-1059 4.3 19:21:42 10° W 19:25:43 48° NNW 19:25:59 47° N
STARLINK-1054 4.1 19:23:09 10° SW 19:26:20 51° SSW 19:26:20 51° SSW
Cosmos 1763 Rocket 3.4 19:22:06 10° SSW 19:27:19 88° ESE 19:32:39 10° NNE
Cosmos 2219 3.5 19:24:36 10° NNW 19:29:58 48° NE 19:29:58 48° NE
Meteor 1-19 Rocket 4.5 19:24:41 10° NNW 19:30:29 70° W 19:35:17 14° S
Meteor 2-4 Rocket 3.7 19:24:33 10° N 19:30:30 78° ENE 19:32:13 49° SSE
STARLINK-1057 4.4 19:26:44 10° W 19:30:44 46° NNW 19:30:47 46° NNW
Cosmos 1570 Rocket 4.0 19:25:35 10° S 19:30:09 63° SSE 19:30:09 63° SSE
STARLINK-1062 4.3 19:28:07 10° SW 19:31:07 46° SW 19:31:07 46° SW
NOSS 3-2 (A) 4.2 19:25:13 10° NW 19:32:19 51° NE 19:34:00 45° ENE
STARLINK-1034 4.5 19:31:44 10° W 19:35:33 44° NNW 19:35:33 44° NNW
Resurs 01 Rocket 3.1 19:38:52 26° N 19:38:52 26° N 19:40:58 10° N
Cosmos 2195 Rocket 4.3 19:32:14 10° N 19:38:20 65° ENE 19:38:27 64° E
SL-08 RB Rocket 4.0 19:45:57 63° W 19:45:57 63° W 19:50:14 10° NNW
SJ-6B 4.1 19:46:42 37° WNW 19:46:42 37° WNW 19:49:48 10° NNW
Cosmos 2369 Rocket 4.5 19:43:55 10° W 19:48:12 21° NW 19:52:32 10° N
Lacrosse 5 2.8 19:44:26 10° SW 19:47:37 38° SSW 19:47:37 38° SSW
MetOp-A 4.1 19:50:10 79° SW 19:50:22 81° WSW 19:55:46 10° NNW
ARGOS Delta rocket 4.3 19:51:19 50° W 19:51:21 50° W 19:55:43 10° NNW
CENTAUR R/B 3.5 19:46:28 10° NW 19:53:52 44° NE 19:54:46 43° NE
Meteor 1-13 Rocket 4.3 19:53:42 10° NNW 19:59:12 78° NNW 19:59:12 78° NNW
SJ 16-02 3.1 19:56:16 10° NW 20:00:03 28° W 20:00:55 26° WSW
H-2A R/B 3.7 19:58:43 10° SSW 20:03:31 33° W 20:08:24 10° NNW
ATLAS 3B R/B 3.7 19:59:36 10° NNW 20:05:09 32° NNE 20:05:09 32° NNE
Cosmos 1627 Rocket 4.4 20:00:11 10° N 20:05:55 77° NNW 20:05:55 77° NNW
Cosmos 2026 Rocket 4.5 20:24:22 10° NNW 20:29:35 56° NW 20:29:35 56° NW
USA 238 DEB 3.9 20:24:18 10° NW 20:30:44 73° NW 20:30:44 73° NW
USA 238 3.9 20:24:25 10° NW 20:30:47 73° NW 20:30:47 73° NW
Cosmos 2297 Rocket 3.3 20:26:10 10° NNW 20:29:41 39° NNW 20:29:41 39° NNW
Lacrosse 5 rocket 4.2 20:38:23 10° NW 20:39:39 18° NW 20:39:39 18° NW
Cosmos 2227 Rocket 3.8 20:44:48 10° NNW 20:47:42 31° NW 20:47:42 31° NW
BREEZE-M DEB (TANK) 4.5 20:46:41 10° WNW 20:56:33 47° WNW 20:56:33 47° WNW
USA 234 4.2 21:09:15 41° NW 21:09:15 41° NW 21:13:18 10° NW
CENTAUR R/B 4.1 21:37:09 10° NW 21:41:57 41° NW 21:41:57 41° NW
